NORTHEAST SUFFOLK  -  Rip Current Statement Rip Current Statement        NORTHERN NASSAU  -  Rip Current Statement Rip Current Statement        NORTHERN QUEENS  -  Rip Current Statement Rip Current Statement     Air Quality Alert Air Quality Alert        NORTHWEST SUFFOLK  -  Rip Current Statement Rip Current Statement        SOUTHEAST SUFFOLK  -  Rip Current Statement Rip Current Statement        SOUTHERN NASSAU  -  Rip Current Statement Rip Current Statement        SOUTHERN QUEENS  -  Rip Current Statement Rip Current Statement     Air Quality Alert Air Quality Alert        SOUTHWEST SUFFOLK  -  Rip Current Statement Rip Current Statement      

Active alerts

Northern Queens
  Details for Northern Queens Rip Current Statement  +1 additional alert
Southern Queens
  Details for Southern Queens Rip Current Statement  +1 additional alert
Northern Nassau
  Details for Northern Nassau Rip Current Statement
Southern Nassau
  Details for Southern Nassau Rip Current Statement
Northwest Suffolk
  Details for Northwest Suffolk Rip Current Statement
Southwest Suffolk
  Details for Southwest Suffolk Rip Current Statement
Northeast Suffolk
  Details for Northeast Suffolk Rip Current Statement
Southeast Suffolk
  Details for Southeast Suffolk Rip Current Statement


WXM80 ListenWXM80 Stop

You find our weather info also at:

UK Metoffice

WeatherCloud

Weather Underground

Northeastern Weather Network

AWEKAS

Citizen Weather Observer Program (CWOP)

HAMweather, WeatherForYou, PWS Weather


Weather Underground History page Text

Daily Summary for October 31, 2016 Units:  English    Metric   Both
« Previous Day
Next Day »
Daily Weekly Monthly Yearly Custom
  High: Low: Average:
Temperature: 55.7 °F 44.1 °F 49.7 °F
Dew Point: 51.5 °F 35.4 °F 39.5 °F
Humidity: 89 % 49 % 69 %
Wind Speed: 10.3 mph 0.0 mph 4.7 mph
Wind Gust: 21.0 mph - -
Wind:- - SE
Pressure: 30.28 in 29.90 in -
Precipitation: 0.00 in    
Historical Graphs
 
 
Tabular Data for October 31, 2016
Time Temperature Dew Point Pressure Wind Wind Speed Wind Gust Humidity Rainfall Rate (Hourly)
00:02 54.7 °F 51.5 °F 29.90 in NNE 5.3 mph 11.5 mph 89 % 0.00 in
00:07 54.6 °F 51.4 °F 29.90 in North 4.5 mph 10.4 mph 89 % 0.00 in
00:12 54.6 °F 51.4 °F 29.90 in NNW 2.8 mph 8.1 mph 89 % 0.00 in
00:17 54.6 °F 51.4 °F 29.90 in North 5.6 mph 9.0 mph 89 % 0.00 in
00:22 54.5 °F 51.3 °F 29.91 in NNW 3.7 mph 9.2 mph 89 % 0.00 in
00:27 54.5 °F 51.3 °F 29.91 in North 4.6 mph 8.0 mph 89 % 0.00 in
00:32 54.4 °F 50.9 °F 29.91 in NNE 4.8 mph 11.5 mph 88 % 0.00 in
00:37 54.3 °F 50.8 °F 29.91 in North 6.5 mph 12.7 mph 88 % 0.00 in
00:42 54.2 °F 50.7 °F 29.91 in NNE 7.2 mph 10.4 mph 88 % 0.00 in
00:48 54.1 °F 50.6 °F 29.91 in NNE 6.2 mph 12.7 mph 88 % 0.00 in
00:53 54.1 °F 50.3 °F 29.92 in NNW 9.0 mph 15.0 mph 87 % 0.00 in
00:58 53.9 °F 49.5 °F 29.92 in NNW 8.0 mph 12.7 mph 85 % 0.00 in
01:03 53.8 °F 49.1 °F 29.93 in NNW 7.5 mph 11.5 mph 84 % 0.00 in
01:08 53.8 °F 49.4 °F 29.93 in North 6.7 mph 9.2 mph 85 % 0.00 in
01:13 53.7 °F 49.3 °F 29.93 in North 2.4 mph 3.5 mph 85 % 0.00 in
01:18 53.6 °F 49.2 °F 29.94 in NNW 8.0 mph 13.8 mph 85 % 0.00 in
01:23 53.5 °F 49.1 °F 29.93 in NNE 7.9 mph 11.5 mph 85 % 0.00 in
01:28 53.3 °F 48.9 °F 29.94 in North 7.8 mph 12.0 mph 85 % 0.00 in
01:33 53.2 °F 48.5 °F 29.94 in North 10.3 mph 12.7 mph 84 % 0.00 in
01:38 53.0 °F 48.3 °F 29.94 in NNW 8.2 mph 17.3 mph 84 % 0.00 in
01:44 52.8 °F 48.1 °F 29.94 in NW 6.2 mph 12.0 mph 84 % 0.00 in
01:49 52.7 °F 47.4 °F 29.94 in NNE 6.0 mph 12.7 mph 82 % 0.00 in
01:54 52.5 °F 47.2 °F 29.94 in NW 3.6 mph 6.9 mph 82 % 0.00 in
01:59 52.4 °F 46.7 °F 29.94 in WNW 7.2 mph 13.8 mph 81 % 0.00 in
02:04 52.3 °F 46.3 °F 29.95 in NNW 4.2 mph 11.0 mph 80 % 0.00 in
02:09 52.1 °F 46.1 °F 29.95 in North 3.9 mph 9.2 mph 80 % 0.00 in
02:14 52.0 °F 46.0 °F 29.95 in NNW 4.2 mph 9.2 mph 80 % 0.00 in
02:19 51.9 °F 46.3 °F 29.95 in NNW 5.8 mph 9.2 mph 81 % 0.00 in
02:29 51.7 °F 45.7 °F 29.95 in NNE 6.4 mph 12.0 mph 80 % 0.00 in
02:35 51.5 °F 45.5 °F 29.95 in NNW 7.9 mph 12.0 mph 80 % 0.00 in
02:40 51.4 °F 45.4 °F 29.96 in NNE 7.2 mph 12.7 mph 80 % 0.00 in
02:45 51.2 °F 45.2 °F 29.96 in NE 5.7 mph 8.1 mph 80 % 0.00 in
02:50 51.2 °F 45.2 °F 29.96 in North 9.7 mph 15.0 mph 80 % 0.00 in
02:55 51.1 °F 45.1 °F 29.97 in NNE 6.1 mph 9.2 mph 80 % 0.00 in
03:00 51.0 °F 45.4 °F 29.97 in North 4.0 mph 8.0 mph 81 % 0.00 in
03:05 50.9 °F 45.3 °F 29.97 in North 3.5 mph 5.8 mph 81 % 0.00 in
03:10 50.8 °F 44.9 °F 29.97 in NNW 3.5 mph 12.7 mph 80 % 0.00 in
03:15 50.7 °F 45.1 °F 29.98 in North 7.3 mph 9.2 mph 81 % 0.00 in
03:20 50.5 °F 44.6 °F 29.98 in NNE 7.0 mph 12.0 mph 80 % 0.00 in
03:25 50.4 °F 44.1 °F 29.98 in NNE 7.0 mph 21.0 mph 79 % 0.00 in
03:30 50.1 °F 42.8 °F 29.98 in NNE 9.0 mph 16.0 mph 76 % 0.00 in
03:35 49.8 °F 42.2 °F 29.98 in NNE 7.0 mph 17.0 mph 75 % 0.00 in
03:40 49.5 °F 42.2 °F 29.98 in North 9.0 mph 20.0 mph 76 % 0.00 in
03:45 49.2 °F 41.6 °F 29.98 in North 7.0 mph 13.0 mph 75 % 0.00 in
03:50 49.0 °F 42.1 °F 29.99 in North 5.0 mph 10.0 mph 77 % 0.00 in
03:55 48.8 °F 42.2 °F 29.99 in North 6.0 mph 12.0 mph 78 % 0.00 in
04:00 48.7 °F 41.8 °F 29.99 in North 5.8 mph 11.5 mph 77 % 0.00 in
04:05 48.6 °F 41.7 °F 29.99 in North 7.0 mph 15.0 mph 77 % 0.00 in
04:10 48.4 °F 41.5 °F 30.00 in North 5.0 mph 13.0 mph 77 % 0.00 in
04:15 48.2 °F 41.7 °F 30.00 in North 5.8 mph 11.5 mph 78 % 0.00 in
04:20 48.2 °F 41.6 °F 30.00 in North 6.0 mph 18.0 mph 78 % 0.00 in
04:25 48.0 °F 41.1 °F 30.00 in NNE 9.0 mph 16.0 mph 77 % 0.00 in
04:30 47.8 °F 40.6 °F 30.00 in North 5.2 mph 16.1 mph 76 % 0.00 in
04:35 47.7 °F 40.8 °F 30.01 in North 8.0 mph 16.0 mph 77 % 0.00 in
04:40 47.6 °F 41.1 °F 30.01 in North 8.0 mph 16.0 mph 78 % 0.00 in
04:45 47.3 °F 40.8 °F 30.01 in North 7.8 mph 12.0 mph 78 % 0.00 in
04:50 47.2 °F 41.0 °F 30.01 in North 7.0 mph 13.0 mph 79 % 0.00 in
04:55 47.1 °F 40.9 °F 30.01 in North 8.0 mph 13.0 mph 79 % 0.00 in
05:00 47.0 °F 40.5 °F 30.02 in NNE 5.2 mph 13.8 mph 78 % 0.00 in
05:05 46.8 °F 40.3 °F 30.02 in NNE 9.0 mph 16.0 mph 78 % 0.00 in
05:10 46.8 °F 40.6 °F 30.03 in North 2.0 mph 12.0 mph 79 % 0.00 in
05:15 46.7 °F 40.5 °F 30.03 in NNW 2.9 mph 13.8 mph 79 % 0.00 in
05:20 46.7 °F 40.9 °F 30.03 in North 5.0 mph 12.0 mph 80 % 0.00 in
05:25 46.7 °F 40.5 °F 30.04 in NNE 10.0 mph 20.0 mph 79 % 0.00 in
05:30 46.7 °F 40.5 °F 30.04 in NE 6.0 mph 10.4 mph 79 % 0.00 in
05:35 46.6 °F 40.1 °F 30.04 in North 8.0 mph 15.0 mph 78 % 0.00 in
05:40 46.5 °F 39.7 °F 30.05 in North 8.0 mph 21.0 mph 77 % 0.00 in
05:45 46.5 °F 39.7 °F 30.05 in NNE 8.7 mph 16.0 mph 77 % 0.00 in
05:50 46.4 °F 39.6 °F 30.05 in North 8.0 mph 15.0 mph 77 % 0.00 in
05:55 46.4 °F 39.6 °F 30.05 in NNE 6.0 mph 15.0 mph 77 % 0.00 in
06:00 46.3 °F 39.8 °F 30.06 in North 4.1 mph 11.5 mph 78 % 0.00 in
06:05 46.2 °F 39.7 °F 30.06 in North 8.0 mph 14.0 mph 78 % 0.00 in
06:10 46.1 °F 39.3 °F 30.06 in North 7.0 mph 12.0 mph 77 % 0.00 in
06:15 46.0 °F 39.2 °F 30.06 in North 9.0 mph 15.0 mph 77 % 0.00 in
06:20 45.9 °F 38.8 °F 30.06 in NNE 7.0 mph 15.0 mph 76 % 0.00 in
06:25 45.9 °F 39.4 °F 30.06 in North 2.0 mph 12.0 mph 78 % 0.00 in
06:31 45.8 °F 39.3 °F 30.06 in NNE 7.8 mph 11.5 mph 78 % 0.00 in
06:36 45.6 °F 39.1 °F 30.07 in NNW 3.3 mph 8.1 mph 78 % 0.00 in
06:41 45.5 °F 39.4 °F 30.07 in NNE 5.7 mph 9.2 mph 79 % 0.00 in
06:46 45.4 °F 38.6 °F 30.07 in North 7.5 mph 15.0 mph 77 % 0.00 in
06:51 45.3 °F 38.8 °F 30.07 in NNE 6.0 mph 8.1 mph 78 % 0.00 in
06:56 45.2 °F 38.7 °F 30.08 in NNE 3.5 mph 9.0 mph 78 % 0.00 in
07:01 45.0 °F 38.6 °F 30.08 in North 3.3 mph 6.9 mph 78 % 0.00 in
07:06 44.9 °F 38.8 °F 30.08 in NNE 4.7 mph 10.4 mph 79 % 0.00 in
07:11 44.8 °F 38.4 °F 30.08 in NW 9.3 mph 11.5 mph 78 % 0.00 in
07:16 44.7 °F 37.9 °F 30.09 in North 8.7 mph 12.7 mph 77 % 0.00 in
07:21 44.6 °F 37.5 °F 30.09 in North 3.6 mph 8.1 mph 76 % 0.00 in
07:27 44.5 °F 38.1 °F 30.09 in NNE 8.8 mph 12.0 mph 78 % 0.00 in
07:32 44.4 °F 37.3 °F 30.10 in NNE 6.1 mph 12.7 mph 76 % 0.00 in
07:37 44.3 °F 36.9 °F 30.10 in North 9.2 mph 16.0 mph 75 % 0.00 in
07:42 44.3 °F 37.2 °F 30.10 in NNW 6.3 mph 8.1 mph 76 % 0.00 in
07:47 44.2 °F 36.8 °F 30.11 in NNE 9.0 mph 17.0 mph 75 % 0.00 in
07:52 44.1 °F 36.7 °F 30.11 in North 4.9 mph 10.4 mph 75 % 0.00 in
07:57 44.1 °F 36.3 °F 30.11 in North 9.9 mph 12.7 mph 74 % 0.00 in
08:02 44.1 °F 36.7 °F 30.12 in North 9.6 mph 16.0 mph 75 % 0.00 in
08:07 44.1 °F 36.7 °F 30.12 in NNW 7.9 mph 13.8 mph 75 % 0.00 in
08:12 44.1 °F 36.7 °F 30.12 in NNW 4.8 mph 11.0 mph 75 % 0.00 in
08:17 44.1 °F 36.7 °F 30.13 in NE 10.2 mph 18.4 mph 75 % 0.00 in
08:23 44.1 °F 36.3 °F 30.13 in NE 7.3 mph 13.0 mph 74 % 0.00 in
08:28 44.1 °F 36.3 °F 30.13 in East 6.9 mph 11.5 mph 74 % 0.00 in
08:33 44.2 °F 36.8 °F 30.14 in North 8.7 mph 15.0 mph 75 % 0.00 in
08:38 44.1 °F 36.3 °F 30.14 in North 7.7 mph 19.0 mph 74 % 0.00 in
08:48 44.2 °F 36.4 °F 30.14 in North 7.6 mph 16.1 mph 74 % 0.00 in
08:53 44.3 °F 36.5 °F 30.14 in NNE 4.0 mph 10.4 mph 74 % 0.00 in
08:58 44.3 °F 36.5 °F 30.15 in NNE 6.0 mph 9.2 mph 74 % 0.00 in
09:04 44.3 °F 36.5 °F 30.15 in North 8.2 mph 16.1 mph 74 % 0.00 in
09:09 44.3 °F 36.5 °F 30.14 in NNE 7.2 mph 11.5 mph 74 % 0.00 in
09:11 44.3 °F 36.5 °F 30.15 in NE 7.9 mph 12.0 mph 74 % 0.00 in
09:16 44.4 °F 36.6 °F 30.15 in NNE 5.4 mph 10.4 mph 74 % 0.00 in
09:20 44.4 °F 36.3 °F 30.14 in NE 7.2 mph 12.7 mph 73 % 0.00 in
09:25 44.4 °F 36.3 °F 30.14 in NNE 6.2 mph 9.2 mph 73 % 0.00 in
09:27 44.5 °F 36.4 °F 30.14 in NNW 7.8 mph 10.4 mph 73 % 0.00 in
09:30 44.6 °F 36.5 °F 30.15 in North 7.8 mph 15.0 mph 73 % 0.00 in
09:35 44.8 °F 36.7 °F 30.15 in NNE 7.9 mph 13.8 mph 73 % 0.00 in
09:40 45.3 °F 37.5 °F 30.15 in North 6.4 mph 9.2 mph 74 % 0.00 in
09:45 45.9 °F 37.7 °F 30.15 in North 8.2 mph 14.0 mph 73 % 0.00 in
09:50 46.5 °F 38.0 °F 30.15 in NNE 6.5 mph 9.2 mph 72 % 0.00 in
09:55 47.0 °F 38.1 °F 30.15 in NNE 7.5 mph 9.2 mph 71 % 0.00 in
10:00 47.2 °F 37.9 °F 30.15 in NE 4.5 mph 11.5 mph 70 % 0.00 in
10:06 47.4 °F 37.7 °F 30.14 in NNE 7.4 mph 12.7 mph 69 % 0.00 in
10:11 47.3 °F 37.6 °F 30.14 in North 6.7 mph 15.0 mph 69 % 0.00 in
10:16 47.3 °F 37.3 °F 30.14 in NNW 7.6 mph 11.5 mph 68 % 0.00 in
10:21 47.3 °F 36.9 °F 30.15 in NNE 9.7 mph 15.0 mph 67 % 0.00 in
10:26 47.5 °F 37.1 °F 30.15 in NNE 6.7 mph 10.4 mph 67 % 0.00 in
10:31 47.9 °F 37.8 °F 30.15 in NNE 7.6 mph 11.0 mph 68 % 0.00 in
10:36 48.4 °F 38.3 °F 30.15 in North 4.8 mph 7.0 mph 68 % 0.00 in
10:41 48.9 °F 38.4 °F 30.15 in NE 7.1 mph 10.4 mph 67 % 0.00 in
10:46 49.4 °F 38.5 °F 30.15 in North 7.0 mph 9.2 mph 66 % 0.00 in
10:52 49.8 °F 38.5 °F 30.16 in NNE 5.5 mph 8.1 mph 65 % 0.00 in
10:57 50.3 °F 39.4 °F 30.16 in NE 3.5 mph 5.8 mph 66 % 0.00 in
11:02 50.8 °F 39.1 °F 30.16 in North 5.7 mph 9.2 mph 64 % 0.00 in
11:07 51.3 °F 38.7 °F 30.16 in North 6.4 mph 11.5 mph 62 % 0.00 in
11:12 51.5 °F 38.5 °F 30.16 in NNE 5.3 mph 8.1 mph 61 % 0.00 in
11:17 51.8 °F 39.6 °F 30.16 in North 4.6 mph 8.1 mph 63 % 0.00 in
11:22 52.3 °F 39.2 °F 30.16 in NNE 4.9 mph 6.0 mph 61 % 0.00 in
11:27 52.4 °F 38.0 °F 30.16 in North 7.1 mph 9.2 mph 58 % 0.00 in
11:32 52.6 °F 38.2 °F 30.16 in North 7.5 mph 11.5 mph 58 % 0.00 in
11:37 52.6 °F 38.2 °F 30.16 in NNE 6.2 mph 10.4 mph 58 % 0.00 in
11:42 52.8 °F 39.3 °F 30.16 in NE 4.6 mph 7.0 mph 60 % 0.00 in
11:47 53.1 °F 39.1 °F 30.16 in North 6.8 mph 9.2 mph 59 % 0.00 in
11:53 53.1 °F 39.1 °F 30.15 in North 3.3 mph 8.1 mph 59 % 0.00 in
11:58 53.3 °F 39.3 °F 30.16 in North 4.0 mph 8.1 mph 59 % 0.00 in
12:03 53.3 °F 38.9 °F 30.16 in North 3.1 mph 4.6 mph 58 % 0.00 in
12:08 53.5 °F 39.5 °F 30.16 in North 3.3 mph 8.1 mph 59 % 0.00 in
12:13 53.6 °F 39.6 °F 30.16 in WNW 2.3 mph 3.0 mph 59 % 0.00 in
12:18 53.4 °F 38.1 °F 30.15 in NNE 4.5 mph 6.9 mph 56 % 0.00 in
12:23 53.0 °F 39.0 °F 30.16 in West 2.9 mph 2.9 mph 59 % 0.00 in
12:28 52.8 °F 38.9 °F 30.16 in NW 1.5 mph 3.5 mph 59 % 0.00 in
12:34 52.3 °F 38.4 °F 30.16 in North 3.1 mph 5.8 mph 59 % 0.00 in
12:39 52.1 °F 38.6 °F 30.16 in NNW 2.2 mph 4.6 mph 60 % 0.00 in
12:44 52.1 °F 38.2 °F 30.16 in West 3.5 mph 7.0 mph 59 % 0.00 in
12:49 52.2 °F 39.1 °F 30.16 in NE 1.7 mph 5.8 mph 61 % 0.00 in
12:54 52.4 °F 38.9 °F 30.16 in NE 2.8 mph 5.8 mph 60 % 0.00 in
12:59 52.7 °F 37.9 °F 30.16 in NNE 3.9 mph 6.0 mph 57 % 0.00 in
13:04 52.9 °F 39.0 °F 30.16 in NE 3.9 mph 5.8 mph 59 % 0.00 in
13:09 52.8 °F 38.4 °F 30.16 in NNE 4.5 mph 6.0 mph 58 % 0.00 in
13:14 52.5 °F 37.7 °F 30.15 in NNE 1.6 mph 5.0 mph 57 % 0.00 in
13:19 52.3 °F 38.0 °F 30.15 in WNW 1.5 mph 6.0 mph 58 % 0.00 in
13:24 52.1 °F 37.3 °F 30.15 in NE 2.1 mph 4.6 mph 57 % 0.00 in
13:29 51.9 °F 37.6 °F 30.15 in NNE 0.6 mph 4.6 mph 58 % 0.00 in
13:35 51.8 °F 37.5 °F 30.15 in WNW 3.0 mph 5.8 mph 58 % 0.00 in
13:40 51.9 °F 37.6 °F 30.15 in NW 2.0 mph 6.0 mph 58 % 0.00 in
13:45 52.1 °F 38.2 °F 30.15 in North 2.3 mph 4.6 mph 59 % 0.00 in
13:50 52.5 °F 39.0 °F 30.14 in NW 2.0 mph 5.0 mph 60 % 0.00 in
13:55 53.1 °F 38.3 °F 30.15 in NNW 2.5 mph 3.5 mph 57 % 0.00 in
14:00 53.6 °F 38.3 °F 30.15 in NW 3.6 mph 5.0 mph 56 % 0.00 in
14:05 54.1 °F 38.7 °F 30.15 in NNW 3.1 mph 5.0 mph 56 % 0.00 in
14:10 54.5 °F 37.7 °F 30.15 in WNW 2.9 mph 6.9 mph 53 % 0.00 in
14:15 54.8 °F 38.9 °F 30.15 in WNW 0.7 mph 5.8 mph 55 % 0.00 in
14:20 55.0 °F 38.6 °F 30.15 in NW 5.0 mph 8.0 mph 54 % 0.00 in
14:25 55.3 °F 38.4 °F 30.15 in NW 5.0 mph 8.0 mph 53 % 0.00 in
14:30 55.5 °F 39.1 °F 30.14 in NW 3.3 mph 5.8 mph 54 % 0.00 in
14:41 55.6 °F 38.7 °F 30.15 in WNW 4.3 mph 7.0 mph 53 % 0.00 in
14:51 55.7 °F 37.3 °F 30.15 in West 6.4 mph 8.0 mph 50 % 0.00 in
14:56 55.6 °F 36.7 °F 30.15 in NW 4.5 mph 8.1 mph 49 % 0.00 in
15:01 55.4 °F 38.1 °F 30.15 in North 2.3 mph 8.1 mph 52 % 0.00 in
15:06 55.4 °F 38.5 °F 30.15 in West 5.3 mph 8.1 mph 53 % 0.00 in
15:12 55.3 °F 37.5 °F 30.15 in NW 2.7 mph 4.6 mph 51 % 0.00 in
15:17 55.1 °F 37.8 °F 30.15 in WNW 3.4 mph 6.9 mph 52 % 0.00 in
15:22 54.8 °F 37.5 °F 30.15 in NNW 1.6 mph 3.5 mph 52 % 0.00 in
15:27 54.6 °F 36.8 °F 30.15 in NNW 4.9 mph 8.1 mph 51 % 0.00 in
15:32 54.3 °F 37.5 °F 30.15 in NNW 0.7 mph 5.8 mph 53 % 0.00 in
15:37 54.2 °F 37.4 °F 30.15 in NNW 2.4 mph 5.8 mph 53 % 0.00 in
15:42 54.0 °F 36.8 °F 30.15 in WSW 3.5 mph 9.2 mph 52 % 0.00 in
15:47 53.8 °F 37.1 °F 30.15 in NNE 2.9 mph 3.5 mph 53 % 0.00 in
15:52 53.5 °F 36.8 °F 30.15 in NE 4.4 mph 5.8 mph 53 % 0.00 in
15:58 53.3 °F 36.6 °F 30.15 in North 5.7 mph 9.2 mph 53 % 0.00 in
16:03 53.1 °F 35.9 °F 30.15 in NNE 4.6 mph 8.1 mph 52 % 0.00 in
16:08 53.0 °F 36.3 °F 30.15 in North 6.0 mph 8.1 mph 53 % 0.00 in
16:23 52.7 °F 36.5 °F 30.16 in NW 3.3 mph 5.8 mph 54 % 0.00 in
16:28 52.6 °F 36.4 °F 30.16 in North 3.6 mph 6.9 mph 54 % 0.00 in
16:33 52.5 °F 36.8 °F 30.16 in NNE 5.1 mph 6.0 mph 55 % 0.00 in
16:38 52.4 °F 36.7 °F 30.16 in NNW 3.9 mph 4.6 mph 55 % 0.00 in
16:43 52.4 °F 36.7 °F 30.16 in NNW 1.9 mph 4.6 mph 55 % 0.00 in
16:48 52.3 °F 36.6 °F 30.16 in WNW 2.1 mph 3.5 mph 55 % 0.00 in
16:53 52.2 °F 37.0 °F 30.16 in NNW 1.1 mph 4.6 mph 56 % 0.00 in
16:58 52.1 °F 36.4 °F 30.16 in NNW 2.1 mph 3.5 mph 55 % 0.00 in
17:04 52.0 °F 36.3 °F 30.15 in NNE 0.1 mph 2.3 mph 55 % 0.00 in
17:09 51.9 °F 36.2 °F 30.16 in NW 1.8 mph 3.5 mph 55 % 0.00 in
17:14 51.7 °F 36.5 °F 30.16 in NNE 0.7 mph 2.3 mph 56 % 0.00 in
17:19 51.6 °F 36.4 °F 30.16 in NW 1.3 mph 3.5 mph 56 % 0.00 in
17:24 51.5 °F 36.3 °F 30.17 in North 0.3 mph 2.3 mph 56 % 0.00 in
17:29 51.3 °F 36.6 °F 30.17 in NW 2.6 mph 3.5 mph 57 % 0.00 in
17:34 51.2 °F 36.5 °F 30.17 in NNW 0.1 mph 4.6 mph 57 % 0.00 in
17:39 51.0 °F 36.3 °F 30.17 in NNE 0.9 mph 1.2 mph 57 % 0.00 in
17:44 50.8 °F 36.1 °F 30.18 in North 0.7 mph 3.5 mph 57 % 0.00 in
17:49 50.6 °F 36.4 °F 30.18 in NNW 1.6 mph 3.5 mph 58 % 0.00 in
17:55 50.5 °F 36.3 °F 30.17 in North 3.2 mph 5.8 mph 58 % 0.00 in
18:00 50.4 °F 36.2 °F 30.17 in NE 2.6 mph 3.5 mph 58 % 0.00 in
18:05 50.3 °F 35.6 °F 30.18 in NNE 1.8 mph 6.0 mph 57 % 0.00 in
18:10 50.2 °F 36.0 °F 30.17 in North 2.0 mph 3.5 mph 58 % 0.00 in
18:15 50.1 °F 35.9 °F 30.17 in NNW 2.2 mph 5.8 mph 58 % 0.00 in
18:20 50.1 °F 35.9 °F 30.17 in NNE 3.0 mph 6.0 mph 58 % 0.00 in
18:25 50.1 °F 36.3 °F 30.18 in North 1.7 mph 3.5 mph 59 % 0.00 in
18:30 50.1 °F 36.3 °F 30.17 in NNE 2.5 mph 4.6 mph 59 % 0.00 in
18:35 50.0 °F 35.8 °F 30.18 in NNE 2.4 mph 6.9 mph 58 % 0.00 in
18:40 50.0 °F 35.8 °F 30.18 in NNW 2.3 mph 5.8 mph 58 % 0.00 in
18:45 50.0 °F 35.4 °F 30.18 in NNE 4.0 mph 6.9 mph 57 % 0.00 in
18:50 50.0 °F 35.4 °F 30.18 in NNE 4.9 mph 6.0 mph 57 % 0.00 in
18:55 50.0 °F 35.4 °F 30.19 in NNE 5.0 mph 7.0 mph 57 % 0.00 in
19:00 50.0 °F 36.2 °F 30.19 in NNW 2.3 mph 3.5 mph 59 % 0.00 in
19:05 50.0 °F 35.8 °F 30.19 in NNE 2.0 mph 7.0 mph 58 % 0.00 in
19:10 50.0 °F 36.2 °F 30.19 in NNW 0.3 mph 3.5 mph 59 % 0.00 in
19:15 50.0 °F 36.7 °F 30.19 in Calm   4.0 mph 60 % 0.00 in
19:20 49.9 °F 37.0 °F 30.19 in North 0.2 mph 2.3 mph 61 % 0.00 in
19:26 49.8 °F 36.9 °F 30.20 in NNE 2.3 mph 4.6 mph 61 % 0.00 in
19:31 49.7 °F 36.8 °F 30.20 in North 3.9 mph 4.6 mph 61 % 0.00 in
19:36 49.6 °F 36.7 °F 30.20 in North 5.4 mph 8.1 mph 61 % 0.00 in
19:41 49.5 °F 37.0 °F 30.19 in NNE 4.0 mph 6.9 mph 62 % 0.00 in
19:46 49.4 °F 36.9 °F 30.20 in North 0.7 mph 4.6 mph 62 % 0.00 in
19:51 49.4 °F 36.9 °F 30.20 in NNE 2.7 mph 5.0 mph 62 % 0.00 in
19:56 49.3 °F 36.8 °F 30.20 in NNE 2.7 mph 5.0 mph 62 % 0.00 in
20:01 49.3 °F 36.8 °F 30.20 in NNE 0.2 mph 1.2 mph 62 % 0.00 in
20:06 49.2 °F 37.1 °F 30.20 in NNE 2.0 mph 4.6 mph 63 % 0.00 in
20:11 49.2 °F 37.1 °F 30.21 in NE 1.4 mph 2.3 mph 63 % 0.00 in
20:17 49.1 °F 37.4 °F 30.21 in NNE 2.6 mph 4.0 mph 64 % 0.00 in
20:22 49.0 °F 37.3 °F 30.21 in North 2.2 mph 6.9 mph 64 % 0.00 in
20:27 48.9 °F 37.3 °F 30.21 in NE 0.7 mph 2.3 mph 64 % 0.00 in
20:32 48.8 °F 37.2 °F 30.21 in NNE 5.2 mph 6.9 mph 64 % 0.00 in
20:37 48.7 °F 37.1 °F 30.21 in North 3.7 mph 4.6 mph 64 % 0.00 in
20:42 48.7 °F 37.1 °F 30.21 in NNE 2.3 mph 3.5 mph 64 % 0.00 in
20:47 48.7 °F 37.5 °F 30.22 in North 3.2 mph 4.6 mph 65 % 0.00 in
20:52 48.6 °F 37.4 °F 30.22 in NE 1.8 mph 3.0 mph 65 % 0.00 in
20:57 48.6 °F 37.7 °F 30.22 in ENE 3.2 mph 3.5 mph 66 % 0.00 in
21:02 48.6 °F 37.7 °F 30.22 in NNE 1.6 mph 3.5 mph 66 % 0.00 in
21:07 48.5 °F 38.0 °F 30.22 in NNE 2.6 mph 5.0 mph 67 % 0.00 in
21:13 48.5 °F 37.7 °F 30.22 in NNE 4.3 mph 9.2 mph 66 % 0.00 in
21:18 48.4 °F 37.9 °F 30.23 in NNE 2.8 mph 5.8 mph 67 % 0.00 in
21:23 48.4 °F 37.6 °F 30.23 in NNE 6.1 mph 9.2 mph 66 % 0.00 in
21:28 48.4 °F 37.9 °F 30.23 in NNE 5.6 mph 8.1 mph 67 % 0.00 in
21:33 48.3 °F 37.8 °F 30.23 in NNE 4.5 mph 5.8 mph 67 % 0.00 in
21:38 48.4 °F 37.9 °F 30.23 in ENE 1.4 mph 3.5 mph 67 % 0.00 in
21:43 48.3 °F 37.8 °F 30.23 in North 5.3 mph 6.9 mph 67 % 0.00 in
21:48 48.3 °F 37.8 °F 30.24 in North 2.8 mph 5.8 mph 67 % 0.00 in
21:53 48.3 °F 38.6 °F 30.24 in ENE 3.2 mph 6.9 mph 69 % 0.00 in
21:59 48.2 °F 38.9 °F 30.25 in NNE 1.4 mph 4.6 mph 70 % 0.00 in
22:04 48.1 °F 38.8 °F 30.25 in NNE 2.1 mph 6.0 mph 70 % 0.00 in
22:09 48.0 °F 39.0 °F 30.24 in NNE 1.9 mph 6.9 mph 71 % 0.00 in
22:14 47.9 °F 38.9 °F 30.25 in North 3.1 mph 4.6 mph 71 % 0.00 in
22:19 47.8 °F 39.2 °F 30.24 in NNE 4.5 mph 8.1 mph 72 % 0.00 in
22:24 47.8 °F 39.2 °F 30.24 in North 3.5 mph 6.0 mph 72 % 0.00 in
22:29 47.8 °F 39.2 °F 30.24 in NNE 1.8 mph 3.5 mph 72 % 0.00 in
22:34 47.7 °F 39.1 °F 30.25 in NNE 2.6 mph 3.5 mph 72 % 0.00 in
22:39 47.6 °F 39.0 °F 30.25 in NNE 3.3 mph 6.0 mph 72 % 0.00 in
22:44 47.6 °F 39.0 °F 30.25 in East 1.2 mph 5.0 mph 72 % 0.00 in
22:49 47.5 °F 38.9 °F 30.25 in NNE 1.8 mph 5.0 mph 72 % 0.00 in
22:54 47.4 °F 39.2 °F 30.25 in NNE 1.7 mph 5.8 mph 73 % 0.00 in
23:00 47.3 °F 39.1 °F 30.26 in NNE 2.1 mph 3.5 mph 73 % 0.00 in
23:05 47.3 °F 39.4 °F 30.26 in NE 3.1 mph 6.9 mph 74 % 0.00 in
23:10 47.2 °F 39.3 °F 30.26 in NNE 1.5 mph 3.5 mph 74 % 0.00 in
23:15 47.2 °F 39.3 °F 30.26 in NE 3.0 mph 3.5 mph 74 % 0.00 in
23:20 47.2 °F 39.3 °F 30.26 in NE 1.7 mph 4.6 mph 74 % 0.00 in
23:25 47.1 °F 39.6 °F 30.27 in NNE 2.8 mph 6.9 mph 75 % 0.00 in
23:30 47.0 °F 39.5 °F 30.27 in NNE 3.5 mph 5.8 mph 75 % 0.00 in
23:35 47.0 °F 39.5 °F 30.28 in NE 1.4 mph 3.5 mph 75 % 0.00 in
23:40 47.0 °F 39.8 °F 30.27 in NNE 6.5 mph 6.9 mph 76 % 0.00 in
23:45 46.9 °F 39.7 °F 30.28 in NNE 4.3 mph 5.8 mph 76 % 0.00 in
23:50 46.9 °F 39.7 °F 30.28 in NNE 2.0 mph 9.0 mph 76 % 0.00 in
23:55 46.8 °F 39.7 °F 30.27 in NNE 2.0 mph 7.0 mph 76 % 0.00 in
Crab Meadow Weather
Compliments of Weather Underground - 3 mb

Script developed by  Jim McMurry - jmcmurry@mwt.net Adapted for the template by  Wim van der Kuil - Leuven-Template.eu

Astronomy: It takes 16 million horsepower to break loose from the Earth's gravitational pull.